Flag for Canada Weather past 2 weeks in Ottawa, Ontario, Canada

21 °F

Passing clouds.

Feels Like: 21 °F
Forecast: 23 / 38 °F
Wind: 2 mph from Southeast

Location: Ottawa Int'L. Ont.

Current Time: Nov 25, 2015 at 3:39:34 AM

Latest Report: Nov 25, 2015 at 3:00 AM

Visibility: 15 mi

Pressure: 30.59 "Hg

Humidity: 93%

Dew point: 19 °F

Location of OttawaLocation

Historic Weather in Ottawa — Graph


Ottawa temperature yesterday

Maximum temperature yesterday: 28 °F (at 3:00 PM)
Minimum temperature yesterday: 21 °F (at 10:00 PM)
Average temperature yesterday: 25 °F

Past Weeks' High & Low Weather Summary

High61 °F (Nov 19, 10:00 AM)100% (Nov 10, 2:00 AM)30.58 "Hg (Nov 10, 2:00 AM)
Low18 °F (Nov 23, 7:00 AM)39% (Nov 20, 4:00 PM)29.24 "Hg (Nov 13, 12:48 AM)
Average38 °F76%30.04 "Hg
* Reported Nov 10 2:00 AM — Nov 25 2:00 AM, Ottawa, Weather by CustomWeather, © 2015

Note: Actual official high and low records may vary slightly from our data, if they occured in-between our weather recording intervals... More about our weather records


Ottawa weather history for previous 24 hours

Time TempWeatherWind HumidityBarometerVisibility
2:00 AM
Wed, Nov 25
21 °FPassing clouds.3 mph93%30.57 "Hg15 mi
1:00 AM21 °FPassing clouds.6 mph93%30.54 "Hg15 mi
12:00 AM19 °FPassing clouds.3 mph93%30.53 "Hg15 mi
11:00 PM
Tue, Nov 24
21 °FPassing clouds.2 mph93%30.52 "Hg15 mi
10:00 PM21 °FPassing clouds.No wind100%30.50 "Hg15 mi
9:00 PM23 °FPassing clouds.3 mph93%30.50 "Hg15 mi
8:00 PM23 °FPassing clouds.5 mph86%30.47 "Hg15 mi
7:00 PM27 °FOvercast.5 mph86%30.46 "Hg15 mi
6:00 PM27 °FOvercast.3 mph86%30.44 "Hg15 mi
5:00 PM27 °FOvercast.5 mph86%30.40 "Hg15 mi
4:49 PM27 °FOvercast.3 mph86%30.40 "Hg15 mi
4:00 PM27 °FScattered clouds.3 mph86%30.37 "Hg15 mi
3:00 PM28 °FMostly cloudy.5 mph80%30.35 "Hg15 mi
2:00 PM27 °FMostly cloudy.2 mph86%30.33 "Hg15 mi
1:00 PM27 °FOvercast.5 mph86%30.32 "Hg15 mi
12:00 PM27 °FLight snow. Overcast.5 mph80%30.32 "Hg15 mi
11:00 AM27 °FLight snow. More clouds than sun.7 mph80%30.31 "Hg10 mi
10:00 AM25 °FLight snow. More clouds than sun.8 mph86%30.31 "Hg10 mi
9:00 AM25 °FLight snow. Mostly cloudy.8 mph86%30.28 "Hg10 mi
8:00 AM23 °FLight snow. Cloudy.8 mph93%30.26 "Hg10 mi
7:00 AM23 °FLight snow. Partly cloudy.8 mph86%30.24 "Hg10 mi
6:00 AM23 °FOvercast.8 mph86%30.22 "Hg10 mi
5:00 AM23 °FLight snow. Overcast.8 mph86%30.20 "Hg5 mi
4:00 AM25 °FLight snow. Mostly cloudy.6 mph80%30.18 "Hg4 mi
3:45 AM25 °FLight snow. Mostly cloudy.6 mph80%30.18 "Hg4 mi
3:00 AM27 °FLight snow. Overcast.5 mph69%30.17 "Hg10 mi
Weather by CustomWeather, © 2015

See weather overviewHow to use our weather pages